TimeEST,TemperatureF,Dew PointF,Humidity,Sea Level PressureIn,VisibilityMPH,Wind Direction,Wind SpeedMPH,Gust SpeedMPH,PrecipitationIn,Events,Conditions,WindDirDegrees,DateUTC
12:07 AM,37.4,37.4,100,29.69,7.0,WNW,11.5,-,0.00,Rain,Light Rain,300,2012-12-11 05:07:00
12:26 AM,37.4,37.4,100,29.71,10.0,WNW,15.0,20.7,0.01,Rain,Light Rain,300,2012-12-11 05:26:00
12:34 AM,37.4,37.4,100,29.71,10.0,WNW,13.8,-,0.01,Rain,Light Rain,300,2012-12-11 05:34:00
12:54 AM,37.0,37.0,100,29.72,10.0,WNW,12.7,-,0.01,Rain,Light Rain,300,2012-12-11 05:54:00
1:43 AM,37.4,35.6,93,29.76,10.0,WNW,9.2,-,0.00,,Overcast,290,2012-12-11 06:43:00
1:54 AM,36.0,36.0,100,29.75,10.0,WNW,8.1,-,0.00,,Light Drizzle,300,2012-12-11 06:54:00
2:54 AM,35.1,35.1,100,29.77,10.0,WNW,9.2,-,0.00,,Light Drizzle,300,2012-12-11 07:54:00
3:07 AM,35.6,35.6,100,29.78,10.0,NW,8.1,-,0.00,,Light Drizzle,310,2012-12-11 08:07:00
3:24 AM,33.8,33.8,100,29.78,10.0,WNW,9.2,-,0.00,,Light Drizzle,300,2012-12-11 08:24:00
3:54 AM,34.0,34.0,100,29.79,10.0,NW,5.8,-,0.00,,Light Drizzle,310,2012-12-11 08:54:00
4:35 AM,33.8,33.8,100,29.80,10.0,NW,4.6,-,0.00,,Overcast,310,2012-12-11 09:35:00
4:45 AM,33.8,33.8,100,29.81,10.0,NW,5.8,-,0.00,,Overcast,320,2012-12-11 09:45:00
4:54 AM,34.0,34.0,100,29.81,10.0,NW,6.9,-,0.00,Snow,Light Snow,320,2012-12-11 09:54:00
5:03 AM,33.8,33.8,100,29.82,9.0,NW,9.2,-,0.00,Snow,Light Snow,320,2012-12-11 10:03:00
5:47 AM,32.0,30.2,93,29.86,3.0,NW,9.2,-,0.00,Snow,Light Snow,310,2012-12-11 10:47:00
5:49 AM,32.0,30.2,93,29.86,2.5,NW,9.2,-,0.00,Snow,Light Snow,310,2012-12-11 10:49:00
5:54 AM,32.0,30.0,92,29.86,2.5,NW,9.2,-,0.00,Snow,Light Snow,310,2012-12-11 10:54:00
6:02 AM,32.0,30.2,93,29.86,1.8,NW,5.8,-,0.00,Snow,Light Snow,310,2012-12-11 11:02:00
6:06 AM,32.0,30.2,93,29.85,2.0,NNW,6.9,-,0.00,Snow,Light Snow,340,2012-12-11 11:06:00
6:19 AM,32.0,30.2,93,29.86,4.0,NNW,8.1,-,0.00,Snow,Light Snow,330,2012-12-11 11:19:00
6:32 AM,32.0,30.2,93,29.87,9.0,WNW,5.8,-,0.00,Snow,Light Snow,300,2012-12-11 11:32:00
6:54 AM,32.0,28.9,88,29.89,9.0,WNW,6.9,-,0.00,Snow,Light Snow,290,2012-12-11 11:54:00
7:38 AM,32.0,28.4,87,29.92,9.0,West,10.4,-,0.00,Snow,Light Snow,280,2012-12-11 12:38:00
7:54 AM,32.0,28.9,88,29.93,9.0,NW,6.9,-,0.00,,Overcast,310,2012-12-11 12:54:00
8:06 AM,32.0,28.4,87,29.93,10.0,WNW,8.1,-,N/A,,Overcast,300,2012-12-11 13:06:00
8:22 AM,32.0,28.4,87,29.93,10.0,WNW,8.1,-,N/A,,Overcast,300,2012-12-11 13:22:00
8:54 AM,32.0,27.0,82,29.94,10.0,West,8.1,-,N/A,,Overcast,280,2012-12-11 13:54:00
9:22 AM,32.0,26.6,80,29.95,10.0,West,9.2,-,N/A,,Overcast,270,2012-12-11 14:22:00
9:37 AM,32.0,26.6,80,29.95,10.0,WNW,8.1,-,N/A,,Mostly Cloudy,290,2012-12-11 14:37:00
9:49 AM,33.8,28.4,81,29.96,10.0,West,8.1,-,N/A,,Mostly Cloudy,260,2012-12-11 14:49:00
9:54 AM,34.0,28.0,79,29.97,10.0,WSW,11.5,-,N/A,,Mostly Cloudy,250,2012-12-11 14:54:00
10:12 AM,33.8,28.4,81,29.97,10.0,West,10.4,-,0.00,Snow,Light Snow,280,2012-12-11 15:12:00
10:54 AM,33.1,27.0,78,29.99,9.0,WNW,10.4,-,0.00,Snow,Light Snow,300,2012-12-11 15:54:00
11:23 AM,33.8,26.6,75,29.97,9.0,West,4.6,-,0.00,,Mostly Cloudy,270,2012-12-11 16:23:00
11:54 AM,34.0,26.1,73,29.98,10.0,West,13.8,-,0.00,,Overcast,280,2012-12-11 16:54:00
12:54 PM,33.1,26.1,75,30.01,5.0,WNW,8.1,-,0.00,Snow,Light Snow,290,2012-12-11 17:54:00
1:38 PM,33.8,24.8,70,30.01,10.0,West,10.4,-,0.00,,Overcast,270,2012-12-11 18:38:00
1:54 PM,34.0,25.0,70,30.02,10.0,NW,9.2,-,0.00,,Overcast,310,2012-12-11 18:54:00
2:54 PM,33.1,24.1,70,30.03,10.0,WNW,6.9,-,N/A,,Overcast,300,2012-12-11 19:54:00
3:54 PM,33.1,25.0,72,30.06,9.0,NW,9.2,-,0.00,Snow,Light Snow,320,2012-12-11 20:54:00
4:54 PM,32.0,24.1,73,30.09,9.0,WNW,5.8,-,0.00,Snow,Light Snow,290,2012-12-11 21:54:00
5:54 PM,32.0,25.0,75,30.11,9.0,WNW,5.8,-,0.00,Snow,Light Snow,290,2012-12-11 22:54:00
6:54 PM,30.9,26.1,82,30.13,9.0,Calm,Calm,-,0.00,Snow,Light Snow,0,2012-12-11 23:54:00
7:54 PM,30.0,25.0,82,30.14,10.0,West,3.5,-,0.00,,Overcast,260,2012-12-12 00:54:00
8:54 PM,30.0,25.0,82,30.16,10.0,SSW,3.5,-,0.00,Snow,Light Snow,210,2012-12-12 01:54:00
9:54 PM,30.9,24.1,76,30.18,9.0,SSW,3.5,-,0.00,Snow,Light Snow,210,2012-12-12 02:54:00
10:54 PM,28.9,24.1,82,30.19,10.0,South,3.5,-,0.00,,Scattered Clouds,180,2012-12-12 03:54:00
11:54 PM,28.0,24.1,85,30.20,10.0,Calm,Calm,-,N/A,,Scattered Clouds,0,2012-12-12 04:54:00